Theta_e
325 324 324 324 325 326 327 328 329 329 329 329 329 327 327 330 327 318 312 321 322 330 324 314 317 316 314 309 309 307 298 295 298 298 301 303 303 305 308 311 314 316 315 319 322
325 324 324 324 324 325 326 326 327 328 328 328 328 327 329 327 318 314 323 329 330 330 313 314 311 314 311 307 306 303 301 299 302 303 302 304 302 303 306 309 310 314 319 319 322
323 324 324 324 324 324 324 325 326 327 327 327 327 327 328 324 311 309 328 330 331 328 316 313 311 312 310 306 303 305 301 303 302 305 306 303 301 303 304 304 309 309 314 317 319
321 322 323 323 323 323 324 324 325 326 327 327 326 326 325 317 295 311 325 330 331 320 316 311 310 308 306 306 303 301 303 304 305 307 306 306 304 302 304 306 309 310 316 317 318
319 320 320 322 322 323 323 324 324 325 325 326 326 325 320 310 307 316 327 329 323 316 314 312 309 307 305 304 303 301 302 302 305 304 303 304 304 306 303 305 306 312 317 317 318
317 318 318 320 322 322 323 323 324 324 325 326 325 324 314 303 315 323 321 318 315 314 312 312 311 311 305 304 305 304 304 304 306 305 305 302 302 303 306 307 305 314 315 317 318
315 316 317 319 321 321 322 322 324 323 324 326 325 320 312 307 319 319 317 313 314 313 310 312 313 309 306 301 305 304 302 303 305 307 306 304 299 297 304 304 305 311 314 316 318
314 315 315 318 320 321 321 322 322 323 324 324 324 317 306 316 317 316 315 313 315 314 313 313 313 307 305 304 302 300 300 296 302 305 307 304 300 304 304 302 304 307 312 315 317
312 313 315 315 318 320 320 320 321 323 324 323 315 311 303 320 313 314 314 311 314 314 314 316 312 306 305 297 294 298 291 295 298 305 305 300 298 305 304 298 299 300 307 313 316
311 312 314 315 317 319 319 320 321 321 317 315 312 303 307 306 314 315 316 315 311 311 310 308 305 301 301 298 286 289 292 292 293 299 302 299 298 303 307 301 301 302 299 305 313
310 312 313 314 315 318 318 314 306 301 306 300 300 301 302 312 316 313 314 312 311 307 300 303 298 294 295 300 297 293 292 291 294 299 298 297 298 302 305 302 299 299 299 300 305
309 310 312 313 315 317 315 305 303 301 297 301 304 305 309 309 304 310 313 304 303 297 299 298 294 295 299 299 298 297 293 292 296 299 297 295 296 299 302 303 305 305 305 303 303
309 310 311 313 314 314 310 307 309 307 297 298 303 302 306 307 302 305 309 303 300 296 296 293 294 297 296 294 293 291 293 293 293 296 296 295 293 295 299 303 304 306 308 308 305
308 309 311 312 307 308 306 310 308 307 288 291 296 300 303 304 299 309 311 303 298 295 295 294 296 294 291 291 293 288 293 294 293 293 287 293 284 291 295 298 299 302 305 306 307
308 309 310 312 303 303 308 309 309 302 276 291 295 304 302 299 301 303 308 302 293 294 294 290 292 293 292 292 294 290 294 293 292 291 290 288 286 287 293 292 296 298 303 305 308
308 309 310 308 306 307 310 308 304 284 275 286 294 295 295 295 295 302 302 302 300 294 292 291 292 296 294 295 295 295 293 292 293 290 283 286 286 286 289 291 294 297 300 303 306
307 308 307 307 300 310 308 300 283 278 287 284 288 293 291 290 292 296 295 293 290 286 286 289 291 293 296 292 295 295 290 279 281 281 279 285 285 288 291 295 296 297 299 300 302
307 308 307 307 307 309 303 290 278 283 284 288 290 291 288 290 290 292 292 289 291 286 282 284 281 290 294 293 291 292 290 279 271 274 277 283 282 288 294 297 299 300 300 300 299
307 303 302 305 308 307 295 281 281 284 285 288 289 286 285 289 288 289 289 289 290 286 281 280 281 286 289 292 294 290 287 290 283 281 279 281 284 290 294 294 295 296 296 298 299
299 297 297 306 307 302 289 284 282 287 287 290 283 286 282 285 284 285 285 289 288 289 286 282 278 285 287 291 292 289 291 281 282 270 271 279 280 283 287 290 292 293 294 296 297
296 290 298 305 306 294 283 284 282 287 291 288 285 285 284 285 284 284 285 284 291 288 291 285 281 285 287 285 285 288 287 286 284 282 276 273 278 290 289 291 292 294 294 295 295
293 284 298 304 290 288 284 284 289 287 286 284 284 283 284 286 284 280 282 283 289 291 287 288 281 277 282 286 287 289 287 286 278 275 281 281 282 290 289 290 290 290 291 293 292
288 289 299 298 283 284 285 285 287 286 285 284 283 284 287 285 282 283 283 286 288 290 288 289 282 268 274 279 286 285 287 288 288 283 279 274 279 289 289 290 292 292 295 295 297
290 284 291 293 289 287 283 284 283 286 284 285 284 287 283 284 283 281 282 287 288 290 294 293 281 277 274 275 280 281 285 288 286 282 280 281 283 287 290 290 292 292 294 297 298
288 285 288 281 285 286 287 285 283 281 284 286 284 286 285 281 281 281 284 288 288 292 290 287 274 280 279 280 281 282 283 284 285 286 282 283 283 288 289 289 292 294 295 296 297
285 285 290 285 287 286 288 284 284 281 283 282 283 285 285 282 283 283 286 287 286 289 287 288 278 283 280 281 281 279 281 281 283 284 283 283 283 290 292 290 289 291 292 294 295
290 292 289 288 286 285 285 284 284 283 283 286 287 285 283 285 287 289 287 286 288 287 285 283 277 274 274 275 277 270 279 281 281 282 282 278 284 289 288 288 289 290 291 292 295
Wind_Speed
24 23 22 21 19 17 15 13 12 11 12 10 10 8 6 5 5 2 6 6 3 4 2 2 4 4 4 3 4 1 5 3 4 6 3 3 5 1 1 4 2 4 2 2 9
24 24 24 23 21 19 16 15 13 12 11 12 11 8 6 8 2 6 6 5 5 4 3 4 3 3 3 3 3 3 4 11 7 7 4 1 3 7 5 2 3 2 2 4 12
23 25 25 25 23 21 19 16 14 12 12 11 12 10 10 8 1 8 15 7 5 4 1 2 5 4 3 1 2 3 4 4 4 7 7 5 1 1 6 3 8 7 5 7 10
18 25 26 26 25 23 21 18 15 13 13 12 13 12 11 3 7 2 5 18 7 5 4 5 3 6 5 5 2 2 1 2 6 6 2 7 7 3 4 5 4 7 6 11 13
19 19 13 27 27 25 23 20 18 15 13 12 15 13 7 5 7 3 6 9 6 6 7 5 5 5 7 6 5 4 0 2 3 3 4 3 6 6 7 9 3 3 8 14 14
18 17 13 19 28 27 24 22 19 16 14 13 17 16 5 11 1 1 7 8 6 5 6 6 6 4 5 5 6 5 3 2 2 3 3 2 4 5 9 7 7 7 10 11 15
18 19 14 15 25 28 25 22 20 17 15 14 19 9 6 13 5 7 6 3 6 5 6 3 4 2 6 3 2 4 2 1 5 3 5 4 5 10 7 3 8 9 8 8 13
19 20 15 14 19 26 25 24 21 19 16 16 20 5 6 2 6 7 5 4 5 4 4 5 6 6 4 2 4 4 2 3 1 6 5 7 11 7 5 7 11 10 8 10 12
20 20 19 15 21 26 26 24 21 20 17 15 9 7 8 9 7 5 6 8 5 3 3 3 4 4 3 5 3 2 3 8 4 9 5 8 3 6 3 5 10 9 9 9 10
22 21 21 19 17 27 25 23 20 15 9 4 2 5 5 10 7 6 4 8 5 6 4 3 3 4 3 6 7 6 6 4 5 3 4 5 6 11 11 6 10 10 7 8 10
22 21 23 22 19 26 24 16 11 5 14 21 13 5 8 6 8 6 7 7 4 4 8 4 4 14 9 8 4 5 4 5 2 6 3 7 10 13 15 5 9 10 9 10 13
22 23 23 24 22 26 22 19 28 9 20 6 8 13 3 3 7 10 9 8 10 8 6 5 13 6 6 5 5 3 3 4 3 2 1 6 14 9 16 11 12 14 12 13 11
22 22 22 24 22 18 28 29 23 10 9 8 6 12 8 7 13 18 15 6 5 10 13 8 3 8 6 5 6 3 5 3 1 6 2 5 18 9 12 18 13 15 16 14 17
24 23 24 25 17 18 26 25 22 3 10 11 14 8 7 6 5 13 10 7 5 13 8 7 4 8 4 7 7 9 7 6 4 3 6 2 14 8 4 10 8 12 14 16 18
24 23 25 28 10 20 13 20 11 2 13 16 13 5 9 9 12 15 2 3 9 9 9 7 9 9 10 6 6 5 5 6 4 3 2 5 7 6 3 7 11 8 13 16 17
24 25 26 17 12 20 20 24 12 9 9 12 13 13 16 5 5 7 7 3 3 6 4 4 1 7 9 4 9 7 5 4 2 4 9 9 9 18 11 8 8 7 10 12 15
27 23 22 14 19 17 24 16 13 12 9 10 20 24 22 10 10 15 17 14 9 9 10 2 3 2 4 6 3 6 7 0 3 6 9 4 9 27 6 10 7 11 11 13 11
26 20 20 14 8 23 20 17 16 13 10 7 20 23 17 15 6 7 18 13 6 6 4 11 6 9 5 5 5 9 6 6 8 6 3 2 10 16 3 7 14 15 15 11 9
23 10 9 13 15 17 20 22 11 16 10 17 23 23 8 14 9 9 13 19 12 9 9 8 6 3 1 5 11 5 10 4 2 2 0 5 10 18 16 15 12 13 9 15 16
10 8 13 13 19 13 17 21 8 9 12 23 17 24 26 27 14 19 18 16 9 8 4 5 4 1 3 3 1 7 6 3 2 1 3 7 7 17 1 1 5 8 10 11 9
7 7 7 16 16 17 15 8 8 8 16 18 14 14 15 20 17 20 20 4 12 11 8 6 5 3 5 7 10 5 9 2 4 5 5 4 9 14 13 10 11 13 8 9 11
6 7 7 13 13 13 13 14 8 17 6 5 7 5 11 20 9 5 10 4 8 15 14 3 6 4 6 4 4 8 10 7 6 4 4 2 16 7 6 8 2 7 10 11 9
6 3 5 14 11 13 8 10 7 17 7 5 6 5 11 13 7 6 7 2 8 13 19 9 4 4 6 7 1 8 8 10 12 2 11 5 15 10 7 6 7 9 15 20 21
4 6 4 8 4 19 16 18 14 4 6 7 10 19 11 15 5 7 5 2 6 8 10 16 4 8 11 6 5 10 9 14 15 10 21 17 32 41 21 14 12 10 12 17 19
2 2 3 6 11 18 17 21 27 11 3 8 4 19 16 10 5 6 7 7 4 12 4 8 6 3 0 3 3 4 13 13 20 26 9 16 11 33 9 9 16 19 21 21 22
4 2 3 6 18 23 21 17 26 6 6 6 17 21 11 16 12 17 13 12 8 9 6 2 4 8 11 7 6 6 12 13 15 12 16 13 28 39 29 15 17 17 15 16 20
2 1 2 11 13 17 13 21 21 11 8 9 22 17 5 13 8 12 5 7 11 17 7 7 7 4 5 3 4 10 24 20 12 12 16 19 35 24 23 18 20 14 11 17 21
Wind_Direction
219 213 212 219 222 223 220 215 221 222 208 195 193 203 219 210 139 139 214 220 224 181 180 116 46 16 46 48 16 11 82 175 204 160 214 178 169 131 100 116 244 199 183 323 130
229 218 211 211 217 219 220 216 214 212 214 198 185 187 180 159 180 224 241 221 245 207 137 142 134 84 55 13 30 77 143 203 180 175 181 81 235 165 146 141 239 252 95 91 142
240 225 216 209 210 215 216 216 209 208 208 202 181 172 162 164 318 243 203 199 207 167 171 101 115 102 126 72 11 116 200 308 223 152 140 141 195 280 135 196 218 200 174 157 175
247 233 223 213 207 207 211 210 207 201 204 199 180 173 161 128 213 303 325 199 189 138 107 114 110 119 139 168 149 169 79 93 336 339 147 172 149 195 214 239 161 205 165 166 181
248 227 233 223 208 203 205 208 203 199 199 196 175 162 129 190 242 309 310 177 118 149 169 151 142 137 173 162 133 154 214 44 339 354 326 333 226 191 215 245 242 137 173 182 191
247 231 229 228 209 199 201 203 200 197 197 198 178 150 165 220 200 67 118 110 143 130 160 149 184 183 113 165 180 150 138 281 290 304 302 279 324 137 242 229 222 188 212 199 195
243 231 235 233 218 197 195 198 197 193 193 199 181 163 209 210 153 124 102 104 151 147 143 177 146 165 127 121 155 114 289 322 204 213 237 159 282 230 234 198 211 211 210 222 223
242 233 227 235 212 196 192 192 192 189 187 195 182 154 227 143 140 116 119 68 65 64 116 144 116 101 83 129 43 106 73 239 178 154 247 158 254 253 229 195 237 233 219 206 218
236 230 227 232 223 204 191 190 187 186 184 187 182 193 214 131 163 154 129 130 99 60 71 113 85 118 116 113 73 217 174 224 284 197 149 189 258 249 94 202 264 259 252 223 222
228 230 219 228 231 199 189 186 182 182 166 106 27 162 220 192 131 142 112 135 116 113 70 79 98 128 152 184 203 183 213 253 216 211 202 213 249 273 273 200 241 269 263 255 242
226 225 224 218 225 203 185 177 170 175 187 190 183 185 146 132 122 166 140 117 122 156 176 180 187 204 180 196 129 136 164 201 225 256 249 231 241 244 261 224 250 246 249 245 240
222 227 223 218 221 210 194 197 179 184 188 211 135 193 170 149 154 167 155 148 179 183 116 146 225 181 157 176 165 149 207 212 252 325 221 295 274 231 263 246 227 239 243 245 250
217 221 220 215 220 199 198 189 173 203 171 178 155 176 167 159 178 171 165 140 185 159 181 186 186 137 132 149 171 196 229 164 312 331 263 312 284 225 237 247 231 233 237 235 228
217 217 219 210 214 197 209 166 179 218 198 176 175 196 152 148 178 144 172 138 174 187 168 210 169 147 151 197 154 236 182 194 255 323 258 2 283 241 230 269 230 231 237 239 237
213 217 217 202 199 200 179 151 167 91 211 157 159 116 148 170 140 177 115 90 159 151 149 188 157 153 200 182 153 221 149 166 176 209 354 234 279 281 185 265 272 235 238 242 240
209 213 210 202 209 196 152 153 157 222 201 170 144 170 156 164 138 128 143 131 114 116 90 157 39 154 173 132 168 150 103 61 140 165 242 216 206 268 241 232 240 227 240 246 251
209 206 204 184 199 181 151 152 195 209 153 150 154 158 168 166 147 178 171 173 164 141 174 111 138 159 151 113 129 198 131 111 223 209 241 209 183 252 298 282 234 266 257 255 248
212 197 208 192 163 165 162 176 203 142 187 162 166 158 173 144 155 168 169 168 134 123 140 163 197 168 162 169 168 190 187 173 201 204 271 42 227 251 220 250 253 256 263 281 282
196 191 199 176 158 180 167 191 182 155 165 146 143 167 147 170 136 156 196 195 177 179 144 147 232 43 147 153 161 182 215 173 1 306 337 220 281 289 262 248 253 262 288 285 281
181 189 216 176 163 188 183 182 142 153 130 140 156 181 180 176 160 178 172 200 180 150 128 182 120 134 171 93 95 146 156 116 205 213 241 255 255 249 167 64 303 271 254 273 275
160 193 194 189 170 186 199 201 133 163 138 151 160 170 173 174 179 186 186 15 165 149 102 129 95 121 118 202 183 169 211 186 135 179 204 275 253 239 248 223 238 267 298 306 298
170 200 182 169 192 181 176 150 116 140 88 103 94 99 162 164 158 138 182 97 151 145 171 195 114 152 183 314 232 209 216 172 166 224 241 259 270 190 250 239 152 329 300 292 280
151 187 176 165 190 164 138 130 115 144 135 139 117 108 140 151 136 156 135 96 157 156 162 158 171 72 1 347 314 210 198 211 240 355 241 152 261 102 79 95 15 338 323 323 325
157 173 150 190 247 149 133 145 123 68 72 81 107 117 110 156 37 149 123 104 155 155 134 157 144 184 204 187 152 197 193 203 197 211 241 225 252 275 258 297 339 339 320 311 305
229 207 135 170 163 141 136 154 142 138 86 134 85 156 142 149 104 142 128 115 95 167 112 145 184 135 93 150 134 179 203 201 210 228 222 243 264 269 280 326 306 288 282 282 286
135 108 107 113 142 152 139 164 154 103 146 157 149 159 142 159 166 155 150 162 165 162 143 126 143 166 209 215 196 225 224 213 226 238 259 281 268 259 289 278 268 267 264 270 278
113 120 321 136 146 148 164 160 156 126 23 134 137 134 111 171 144 158 111 101 148 163 135 138 132 112 226 336 101 296 230 216 206 199 209 227 243 270 280 270 265 293 311 295 289